This is the latest recevied weather packets stored in our database for station/object W1HVD. If no packets are shown the sender has not sent any weather packets the latest 10 day(s).
| Time | Temp. | Humidity | Pressure | Rain* | Wind** | Luminosity | Snow |
|---|---|---|---|---|---|---|---|
| 1778155759 | 9.44° C | 99% | 1008.1 hPa | 0 mm | - | 118 W/m² | - |
| 1778155455 | 9.44° C | 99% | 1008.2 hPa | 0 mm | - | 93 W/m² | - |
| 1778155152 | 9.44° C | 99% | 1008 hPa | 0 mm | - | 125 W/m² | - |
| 1778154848 | 8.89° C | 99% | 1008.3 hPa | 0 mm | - | 118 W/m² | - |
| 1778154544 | 8.89° C | 99% | 1008 hPa | 1.78 mm | - | 98 W/m² | - |
| 1778154241 | 8.89° C | 99% | 1008 hPa | 1.78 mm | - | 59 W/m² | - |
| 1778153938 | 8.89° C | 99% | 1007.9 hPa | 1.27 mm | - | 68 W/m² | - |
| 1778153635 | 8.89° C | 99% | 1008 hPa | 1.27 mm | - | 63 W/m² | - |
| 1778153332 | 8.89° C | 99% | 1008.1 hPa | 1.78 mm | - | 42 W/m² | - |
| 1778153029 | 8.89° C | 99% | 1008.2 hPa | 1.78 mm | - | 44 W/m² | - |
| 1778152727 | 8.89° C | 99% | 1008.2 hPa | 0 mm | - | 74 W/m² | - |
| 1778152424 | 8.89° C | 99% | 1007.6 hPa | 1.78 mm | - | 24 W/m² | - |
| 1778152120 | 8.89° C | 99% | 1008.1 hPa | 1.78 mm | - | 58 W/m² | - |
| 1778151816 | 8.89° C | 99% | 1008.2 hPa | 1.78 mm | - | 27 W/m² | - |
| 1778151513 | 8.89° C | 99% | 1008.2 hPa | 0 mm | - | 22 W/m² | - |
| 1778151210 | 8.89° C | 99% | 1007.9 hPa | 0 mm | - | 20 W/m² | - |
| 1778150907 | 8.89° C | 99% | 1007.7 hPa | 0 mm | - | 22 W/m² | - |
| 1778150603 | 8.89° C | 99% | 1007.2 hPa | 1.27 mm | - | 22 W/m² | - |
| 1778150299 | 8.89° C | 99% | 1007.6 hPa | 1.27 mm | - | 17 W/m² | - |
| 1778149996 | 8.89° C | 99% | 1007.5 hPa | 0 mm | - | 14 W/m² | - |
| 1778149692 | 8.89° C | 99% | 1008 hPa | 1.78 mm | - | 12 W/m² | - |
| 1778149389 | 8.89° C | 99% | 1007.9 hPa | 1.78 mm | - | 9 W/m² | - |
| 1778149085 | 8.89° C | 99% | 1007.8 hPa | 1.27 mm | - | 9 W/m² | - |
| 1778148785 | 8.89° C | 99% | 1007.8 hPa | 1.27 mm | - | 8 W/m² | - |
| 1778148482 | 8.89° C | 99% | 1008 hPa | 0 mm | - | 4 W/m² | - |
* Rain latest hour (hover to see other rain measurements)
** Current wind speed in m/s (hover to see current wind gust speed)